Location: Bukit Lungun
(2.6833°N, 113.9667°E)
Time: 20:23:40
(UTC+00:00)

DELTA 2 R/B (1) - Pass Details

Date: 02 March 2021
Orbit: 790 x 803 km, 39.6° (Epoch: 18 April)

Event Time Altitude Azimuth Distance (km) Brightness Sun altitude
Exits shadow 21:32:32 25° 277° (W) 1,538 4.4 -16.1°
Maximum altitude 21:35:14 43° 222° (SW) 1,103 4.0 -15.4°
Drops below altitude 10° 21:40:31 10° 151° (SSE) 2,366 6.5 -14.1°
Sets 21:43:08 0° 145° (SE) 3,299 7.4 -13.5°
